Tracking 26198 objects as of 1-Oct-2022
HD Live streaming from Space Station
objects crossing your sky now

FLOCK 4X 15

Track FLOCK 4X 15 now!
10-day predictions


NORAD ID: 51010
Int'l Code: 2022-002AC
Perigee: 513.5 km
Apogee: 532.3 km
Inclination: 97.5 °
Period: 94.9 minutes
Semi major axis: 6893 km
RCS: Unknown
Launch date: January 13, 2022
Source: United States (US)
Launch site: AIR FORCE EASTERN TEST RANGE (AFETR)
aabbcc
Your satellite tracking list
Your tracking list is empty




NASA's NSSDC Master Catalog

Two Line Element Set (TLE):
1 51010U 22002AC  22273.44637579  .00013376  00000-0  68355-3 0  9994
2 51010  97.4792 339.2671 0013638  68.1816 292.0866 15.16715098 39333
Source of the keplerian elements: AFSPC